| time (UTC) | temp F | wind direction | speed knots | gust knots | rain 1hr in | rain 24hr in | rain mn in | humidity % | barometer mb |
| 20260506135139 | 60 | 329 | 2.6 | 2.6 | 0.00 | 0.00 | 0.55 | 99 | 1001.0 |
| 20260506134512 | 60 | 328 | 0.9 | 0.9 | 0.00 | 0.00 | 0.55 | 99 | 1000.6 |
| 20260506133920 | 60 | 353 | 1.7 | 1.7 | 0.00 | 0.00 | 0.55 | 99 | 1001.0 |
| 20260506133350 | 60 | 50 | 0.9 | 1.7 | 0.00 | 0.00 | 0.54 | 99 | 1000.6 |
| 20260506132744 | 60 | 2 | 0.9 | 1.7 | 0.00 | 0.00 | 0.54 | 99 | 1000.3 |
| 20260506132120 | 60 | 342 | 0.9 | 0.9 | 0.00 | 0.00 | 0.54 | 99 | 1000.3 |
| 20260506131514 | 60 | 356 | 0.9 | 1.7 | 0.00 | 0.00 | 0.54 | 99 | 1000.3 |
| 20260506130920 | 60 | 6 | 0.9 | 1.7 | 0.00 | 0.00 | 0.54 | 99 | 1000.3 |
| 20260506125727 | 60 | 343 | 0.9 | 0.9 | 0.00 | 0.00 | 0.54 | 99 | 1000.0 |
| 20260506125146 | 59 | 343 | 0.9 | 0.9 | 0.00 | 0.00 | 0.54 | 99 | 1000.0 |
| 20260506124511 | 59 | 305 | 0.0 | 0.0 | 0.00 | 0.00 | 0.54 | 99 | 1000.0 |
| 20260506123932 | 59 | 288 | 0.0 | 0.0 | 0.00 | 0.00 | 0.54 | 99 | 1000.0 |
| 20260506123320 | 59 | 282 | 0.0 | 0.0 | 0.00 | 0.00 | 0.54 | 99 | 1000.0 |
| 20260506122715 | 59 | 347 | 0.0 | 0.0 | 0.00 | 0.00 | 0.54 | 99 | 1000.0 |
| 20260506122149 | 59 | 312 | 0.0 | 0.0 | 0.00 | 0.00 | 0.54 | 99 | 1000.0 |
| 20260506121518 | 59 | 354 | 1.7 | 1.7 | 0.00 | 0.00 | 0.54 | 99 | 1000.0 |
| 20260506120310 | 59 | 263 | 0.0 | 0.0 | 0.00 | 0.00 | 0.54 | 99 | 999.6 |
| 20260506115715 | 59 | 320 | 0.0 | 0.0 | 0.00 | 0.00 | 0.54 | 99 | 999.6 |
| 20260506115122 | 59 | 359 | 0.9 | 0.9 | 0.00 | 0.00 | 0.54 | 99 | 999.6 |
| 20260506114533 | 59 | 278 | 0.0 | 0.0 | 0.00 | 0.00 | 0.54 | 99 | 999.3 |
| 20260506113948 | 59 | 272 | 0.0 | 0.0 | 0.00 | 0.00 | 0.53 | 99 | 999.3 |
| 20260506112733 | 59 | 285 | 0.0 | 0.0 | 0.00 | 0.00 | 0.52 | 99 | 999.3 |
| 20260506111515 | 58 | 296 | 0.0 | 0.0 | 0.00 | 0.00 | 0.52 | 99 | 999.3 |
| 20260506110913 | 58 | 286 | 0.0 | 0.0 | 0.00 | 0.00 | 0.52 | 99 | 999.6 |
| 20260506105711 | 58 | 273 | 0.0 | 0.0 | 0.00 | 0.00 | 0.50 | 99 | 999.6 |
| 20260506105146 | 58 | 286 | 0.0 | 0.0 | 0.00 | 0.00 | 0.49 | 99 | 999.3 |
| 20260506103921 | 58 | 288 | 0.0 | 0.0 | 0.00 | 0.00 | 0.49 | 99 | 998.9 |
| 20260506103351 | 58 | 336 | 0.0 | 0.0 | 0.00 | 0.00 | 0.49 | 99 | 999.3 |
| 20260506102708 | 58 | 335 | 0.0 | 0.0 | 0.00 | 0.00 | 0.48 | 99 | 998.9 |
| 20260506102109 | 58 | 274 | 0.0 | 0.0 | 0.00 | 0.00 | 0.48 | 99 | 999.3 |
| 20260506100950 | 58 | 272 | 0.0 | 0.0 | 0.00 | 0.00 | 0.47 | 99 | 998.9 |
| 20260506095711 | 58 | 292 | 0.0 | 0.0 | 0.00 | 0.00 | 0.47 | 99 | 998.9 |
| 20260506095149 | 58 | 292 | 0.0 | 0.0 | 0.00 | 0.00 | 0.45 | 99 | 998.9 |
| 20260506094538 | 58 | 315 | 0.0 | 0.0 | 0.00 | 0.00 | 0.41 | 99 | 998.9 |
| 20260506093321 | 58 | 298 | 0.0 | 0.0 | 0.00 | 0.00 | 0.37 | 99 | 998.6 |
| 20260506092747 | 58 | 271 | 0.0 | 0.0 | 0.00 | 0.00 | 0.36 | 99 | 998.6 |
| 20260506092113 | 58 | 261 | 0.0 | 0.0 | 0.00 | 0.00 | 0.36 | 99 | 998.3 |
| 20260506090323 | 58 | 283 | 0.0 | 0.0 | 0.00 | 0.00 | 0.33 | 99 | 998.6 |
| 20260506085736 | 58 | 296 | 0.0 | 0.0 | 0.00 | 0.00 | 0.28 | 99 | 998.6 |
| 20260506085114 | 58 | 291 | 0.0 | 0.0 | 0.00 | 0.00 | 0.27 | 99 | 998.6 |
| 20260506083926 | 58 | 12 | 0.9 | 0.9 | 0.00 | 0.00 | 0.21 | 99 | 998.6 |
| 20260506083337 | 58 | 257 | 0.0 | 0.0 | 0.00 | 0.00 | 0.20 | 99 | 998.6 |
| 20260506082737 | 58 | 281 | 0.0 | 0.0 | 0.00 | 0.00 | 0.19 | 99 | 998.6 |
| 20260506082142 | 58 | 284 | 0.0 | 0.0 | 0.00 | 0.00 | 0.19 | 99 | 998.9 |
| 20260506081514 | 58 | 292 | 0.0 | 0.0 | 0.00 | 0.00 | 0.18 | 99 | 998.9 |
| 20260506080930 | 58 | 292 | 0.0 | 0.0 | 0.00 | 0.00 | 0.18 | 99 | 998.9 |
| 20260506080318 | 58 | 7 | 1.7 | 1.7 | 0.00 | 0.00 | 0.18 | 99 | 998.6 |
| 20260506073309 | 58 | 273 | 0.0 | 0.0 | 0.00 | 0.00 | 0.14 | 99 | 998.6 |
| 20260506072709 | 58 | 326 | 0.0 | 0.0 | 0.00 | 0.00 | 0.14 | 99 | 998.6 |
| 20260506072143 | 58 | 286 | 0.0 | 0.0 | 0.00 | 0.00 | 0.14 | 99 | 998.6 |
| 20260506071550 | 58 | 355 | 0.0 | 0.9 | 0.00 | 0.00 | 0.14 | 99 | 998.6 |
| 20260506070907 | 58 | 31 | 0.9 | 0.9 | 0.00 | 0.00 | 0.14 | 99 | 998.6 |
| 20260506070330 | 58 | 322 | 0.0 | 0.0 | 0.00 | 0.00 | 0.14 | 99 | 998.6 |
| 20260506062127 | 58 | 351 | 0.0 | 0.0 | 0.00 | 0.00 | 0.08 | 99 | 999.6 |
| 20260506061510 | 59 | 267 | 0.0 | 0.0 | 0.00 | 0.00 | 0.06 | 99 | 1000.0 |
| 20260506060342 | 59 | 289 | 0.0 | 0.0 | 0.00 | 0.00 | 0.04 | 99 | 1000.0 |
| 20260506050949 | 59 | 272 | 0.0 | 0.0 | 0.00 | 0.00 | 0.03 | 98 | 999.6 |
| 20260506050336 | 59 | 270 | 0.0 | 0.0 | 0.00 | 0.00 | 0.03 | 98 | 999.6 |
| 20260506044516 | 59 | 290 | 0.0 | 0.0 | 0.00 | 0.00 | 0.03 | 97 | 999.6 |
| 20260506043920 | 59 | 259 | 0.0 | 0.0 | 0.00 | 0.00 | 0.01 | 97 | 999.6 |
| 20260506042725 | 59 | 307 | 0.0 | 0.0 | 0.00 | 0.00 | 0.01 | 96 | 1000.0 |
| 20260506042128 | 59 | 215 | 0.0 | 0.9 | 0.00 | 0.00 | 0.01 | 96 | 1000.0 |
| 20260506041543 | 59 | 210 | 0.0 | 0.0 | 0.00 | 0.00 | 0.01 | 95 | 1000.3 |
| 20260506040349 | 59 | 209 | 0.0 | 0.0 | 0.00 | 0.00 | 0.00 | 95 | 1000.0 |
| 20260506035712 | 60 | 206 | 0.0 | 0.0 | 0.00 | 0.00 | 0.01 | 95 | 1000.0 |
| 20260506035141 | 59 | 205 | 0.0 | 0.0 | 0.00 | 0.00 | 0.01 | 95 | 999.6 |
| 20260506033949 | 59 | 210 | 0.0 | 0.0 | 0.00 | 0.00 | 0.01 | 95 | 1000.0 |
| 20260506033317 | 59 | 216 | 0.9 | 0.9 | 0.00 | 0.00 | 0.01 | 94 | 1000.0 |
| 20260506032715 | 60 | 213 | 0.0 | 0.0 | 0.00 | 0.00 | 0.01 | 94 | 1000.0 |
| 20260506032147 | 60 | 205 | 0.0 | 0.9 | 0.00 | 0.00 | 0.01 | 93 | 1000.0 |
| 20260506031550 | 60 | 213 | 0.0 | 0.0 | 0.00 | 0.00 | 0.01 | 93 | 1000.3 |
| 20260506030915 | 60 | 202 | 0.0 | 0.9 | 0.00 | 0.00 | 0.01 | 93 | 1000.0 |
| 20260506030347 | 60 | 204 | 0.0 | 0.0 | 0.00 | 0.00 | 0.01 | 93 | 1000.0 |
| 20260506025746 | 60 | 203 | 0.0 | 0.9 | 0.00 | 0.00 | 0.00 | 93 | 1000.0 |
| 20260506025129 | 60 | 212 | 0.0 | 0.0 | 0.00 | 0.00 | 0.00 | 91 | 1000.3 |
| 20260506024518 | 61 | 213 | 0.0 | 0.9 | 0.00 | 0.00 | 0.00 | 89 | 1000.3 |
| 20260506023916 | 61 | 214 | 0.0 | 0.0 | 0.00 | 0.00 | 0.00 | 87 | 1000.6 |
| 20260506023351 | 62 | 212 | 0.0 | 0.0 | 0.00 | 0.00 | 0.00 | 84 | 1000.6 |
| 20260506022716 | 63 | 215 | 0.0 | 0.0 | 0.00 | 0.00 | 0.00 | 81 | 1001.0 |
| 20260506022143 | 64 | 222 | 0.0 | 0.0 | 0.00 | 0.00 | 0.00 | 78 | 1001.0 |
| 20260506021545 | 64 | 227 | 0.0 | 0.0 | 0.00 | 0.00 | 0.00 | 74 | 1001.0 |
| 20260506020946 | 65 | 229 | 0.0 | 0.0 | 0.00 | 0.00 | 0.00 | 70 | 1000.6 |
| 20260506020334 | 65 | 226 | 0.0 | 0.0 | 0.00 | 0.00 | 0.00 | 71 | 1000.0 |
| 20260506015719 | 65 | 226 | 0.0 | 0.0 | 0.00 | 0.00 | 0.00 | 69 | 1000.0 |
| 20260506015150 | 65 | 228 | 0.0 | 0.0 | 0.00 | 0.00 | 0.00 | 71 | 1000.0 |
| 20260506014532 | 65 | 227 | 0.0 | 0.0 | 0.00 | 0.00 | 0.00 | 70 | 1000.3 |
| 20260506013937 | 65 | 233 | 0.0 | 0.0 | 0.00 | 0.00 | 0.00 | 69 | 1000.0 |
| 20260506013345 | 65 | 231 | 0.0 | 0.0 | 0.00 | 0.00 | 0.00 | 69 | 1000.0 |
| 20260506012147 | 65 | 254 | 0.0 | 0.0 | 0.00 | 0.00 | 0.00 | 68 | 1000.0 |
| 20260506010911 | 65 | 252 | 0.0 | 0.0 | 0.00 | 0.00 | 0.00 | 68 | 1000.3 |
| 20260506003348 | 66 | 357 | 0.0 | 0.0 | 0.00 | 0.00 | 0.00 | 67 | 1000.6 |
| 20260506002745 | 66 | 278 | 0.0 | 0.0 | 0.00 | 0.00 | 0.00 | 68 | 1000.6 |
| 20260506002128 | 66 | 262 | 0.0 | 0.0 | 0.00 | 0.00 | 0.00 | 70 | 1000.6 |
| 20260506001517 | 66 | 284 | 0.0 | 0.0 | 0.00 | 0.00 | 0.00 | 69 | 1000.6 |
| 20260506000919 | 66 | 259 | 0.0 | 0.0 | 0.00 | 0.00 | 0.00 | 68 | 1000.6 |
| 20260506000349 | 67 | 296 | 0.0 | 0.0 | 0.00 | 0.00 | 0.00 | 68 | 1000.6 |
| 20260505235739 | 68 | 247 | 0.0 | 0.0 | 0.00 | 0.00 | 0.00 | 68 | 1000.6 |
| 20260505235119 | 68 | 267 | 0.0 | 0.0 | 0.00 | 0.00 | 0.00 | 68 | 1000.6 |
| 20260505234527 | 70 | 277 | 0.0 | 0.0 | 0.00 | 0.00 | 0.00 | 65 | 1001.0 |
| 20260505233341 | 70 | 9 | 1.7 | 1.7 | 0.00 | 0.00 | 0.00 | 55 | 1001.0 |
| 20260505232713 | 71 | 117 | 0.9 | 0.9 | 0.00 | 0.00 | 0.00 | 57 | 1001.3 |
| 20260505232150 | 73 | 318 | 3.5 | 5.2 | 0.00 | 0.00 | 0.00 | 53 | 1001.3 |
| 20260505231552 | 72 | 333 | 3.5 | 5.2 | 0.00 | 0.00 | 0.00 | 52 | 1001.3 |
| 20260505230932 | 71 | 19 | 0.9 | 1.7 | 0.00 | 0.00 | 0.00 | 54 | 1001.0 |
| 20260505230345 | 71 | 215 | 0.0 | 0.0 | 0.00 | 0.00 | 0.00 | 65 | 1001.0 |
| 20260505225114 | 72 | 262 | 0.0 | 0.0 | 0.00 | 0.00 | 0.00 | 65 | 1001.0 |
| 20260505224513 | 71 | 310 | 0.9 | 0.9 | 0.00 | 0.00 | 0.00 | 59 | 1001.0 |
| 20260505223921 | 72 | 277 | 0.0 | 0.0 | 0.00 | 0.00 | 0.00 | 64 | 1000.6 |
| 20260505223312 | 72 | 288 | 0.0 | 0.0 | 0.00 | 0.00 | 0.00 | 64 | 1001.0 |
| 20260505222747 | 73 | 261 | 0.0 | 0.0 | 0.00 | 0.00 | 0.00 | 60 | 1001.0 |
| 20260505222114 | 73 | 242 | 0.0 | 0.0 | 0.00 | 0.00 | 0.00 | 60 | 1001.0 |
| 20260505221516 | 74 | 334 | 0.0 | 0.0 | 0.00 | 0.00 | 0.00 | 52 | 1000.6 |
| 20260505220313 | 74 | 277 | 1.7 | 2.6 | 0.00 | 0.00 | 0.00 | 52 | 1001.0 |
| 20260505215741 | 74 | 41 | 2.6 | 3.5 | 0.00 | 0.00 | 0.00 | 51 | 1001.0 |
| 20260505215149 | 74 | 339 | 2.6 | 3.5 | 0.00 | 0.00 | 0.00 | 50 | 1001.0 |
| 20260505214545 | 75 | 302 | 1.7 | 2.6 | 0.00 | 0.00 | 0.00 | 51 | 1001.0 |
| 20260505213941 | 75 | 280 | 1.7 | 1.7 | 0.00 | 0.00 | 0.00 | 51 | 1001.3 |
| 20260505213316 | 75 | 349 | 2.6 | 3.5 | 0.00 | 0.00 | 0.00 | 49 | 1001.3 |
| 20260505212742 | 75 | 12 | 1.7 | 1.7 | 0.00 | 0.00 | 0.00 | 52 | 1001.3 |
| 20260505212124 | 75 | 1 | 1.7 | 2.6 | 0.00 | 0.00 | 0.00 | 53 | 1000.6 |
| 20260505211527 | 75 | 301 | 2.6 | 3.5 | 0.00 | 0.00 | 0.00 | 51 | 1001.0 |
| 20260505210344 | 76 | 41 | 4.3 | 6.1 | 0.00 | 0.00 | 0.00 | 49 | 1001.3 |
| 20260505205752 | 78 | 348 | 3.5 | 5.2 | 0.00 | 0.00 | 0.00 | 47 | 1001.3 |
| 20260505205138 | 78 | 299 | 2.6 | 2.6 | 0.00 | 0.00 | 0.00 | 46 | 1001.0 |
| 20260505204543 | 77 | 283 | 1.7 | 2.6 | 0.00 | 0.00 | 0.00 | 48 | 1001.3 |
| 20260505203317 | 75 | 359 | 2.6 | 2.6 | 0.00 | 0.00 | 0.00 | 50 | 1001.6 |
| 20260505202754 | 75 | 20 | 2.6 | 2.6 | 0.00 | 0.00 | 0.00 | 52 | 1001.6 |
| 20260505202112 | 74 | 3 | 2.6 | 2.6 | 0.00 | 0.00 | 0.00 | 51 | 1001.6 |
| 20260505201532 | 74 | 2 | 1.7 | 2.6 | 0.00 | 0.00 | 0.00 | 50 | 1001.6 |
| 20260505200940 | 75 | 345 | 2.6 | 3.5 | 0.00 | 0.00 | 0.00 | 51 | 1001.6 |
| 20260505195709 | 75 | 293 | 1.7 | 1.7 | 0.00 | 0.00 | 0.00 | 51 | 1001.6 |
| 20260505194543 | 75 | 351 | 3.5 | 3.5 | 0.00 | 0.00 | 0.00 | 50 | 1002.0 |
| 20260505193940 | 75 | 7 | 3.5 | 6.1 | 0.00 | 0.00 | 0.00 | 51 | 1002.3 |
| 20260505193332 | 75 | 356 | 2.6 | 3.5 | 0.00 | 0.00 | 0.00 | 52 | 1002.3 |
| 20260505192115 | 75 | 338 | 3.5 | 3.5 | 0.00 | 0.00 | 0.00 | 49 | 1002.3 |
| 20260505190931 | 75 | 9 | 3.5 | 6.1 | 0.00 | 0.00 | 0.00 | 52 | 1002.7 |
| 20260505190336 | 75 | 358 | 1.7 | 2.6 | 0.00 | 0.00 | 0.00 | 52 | 1002.7 |
| 20260505185752 | 74 | 327 | 2.6 | 3.5 | 0.00 | 0.00 | 0.00 | 52 | 1002.7 |
| 20260505185140 | 75 | 6 | 3.5 | 5.2 | 0.00 | 0.00 | 0.00 | 52 | 1003.0 |
| 20260505184551 | 75 | 347 | 2.6 | 3.5 | 0.00 | 0.00 | 0.00 | 51 | 1003.0 |
| 20260505183341 | 75 | 282 | 3.5 | 5.2 | 0.00 | 0.00 | 0.00 | 51 | 1003.0 |
| 20260505181514 | 75 | 279 | 4.3 | 7.0 | 0.00 | 0.00 | 0.00 | 52 | 1003.0 |
| 20260505180926 | 75 | 293 | 4.3 | 5.2 | 0.00 | 0.00 | 0.00 | 50 | 1003.3 |
| 20260505180313 | 74 | 305 | 2.6 | 2.6 | 0.00 | 0.00 | 0.00 | 51 | 1003.0 |
| 20260505175713 | 74 | 11 | 3.5 | 7.0 | 0.00 | 0.00 | 0.00 | 50 | 1003.3 |
| 20260505175125 | 74 | 354 | 3.5 | 5.2 | 0.00 | 0.00 | 0.00 | 51 | 1003.3 |
| 20260505174525 | 74 | 353 | 4.3 | 5.2 | 0.00 | 0.00 | 0.00 | 51 | 1003.3 |
| 20260505173933 | 75 | 343 | 3.5 | 3.5 | 0.00 | 0.00 | 0.00 | 52 | 1003.0 |
| 20260505173350 | 75 | 344 | 5.2 | 7.8 | 0.00 | 0.00 | 0.00 | 50 | 1003.0 |
| 20260505172720 | 74 | 42 | 4.3 | 5.2 | 0.00 | 0.00 | 0.00 | 52 | 1003.3 |
| 20260505172131 | 75 | 27 | 4.3 | 7.0 | 0.00 | 0.00 | 0.00 | 52 | 1003.0 |
| 20260505171517 | 75 | 336 | 3.5 | 5.2 | 0.00 | 0.00 | 0.00 | 52 | 1003.3 |
| 20260505170939 | 75 | 354 | 4.3 | 5.2 | 0.00 | 0.00 | 0.00 | 51 | 1003.3 |
| 20260505170328 | 75 | 339 | 3.5 | 5.2 | 0.00 | 0.00 | 0.00 | 52 | 1003.3 |
| 20260505165708 | 75 | 357 | 5.2 | 7.0 | 0.00 | 0.00 | 0.00 | 53 | 1003.0 |
| 20260505165110 | 76 | 301 | 5.2 | 7.8 | 0.00 | 0.00 | 0.00 | 52 | 1003.3 |
| 20260505164512 | 75 | 335 | 5.2 | 7.8 | 0.00 | 0.00 | 0.00 | 52 | 1003.3 |
| 20260505163952 | 75 | 359 | 2.6 | 3.5 | 0.00 | 0.00 | 0.00 | 51 | 1003.0 |
| 20260505163316 | 75 | 322 | 8.7 | 12.2 | 0.00 | 0.00 | 0.00 | 52 | 1003.0 |
| 20260505162718 | 75 | 290 | 4.3 | 6.1 | 0.00 | 0.00 | 0.00 | 52 | 1003.3 |
| 20260505162148 | 75 | 263 | 3.5 | 5.2 | 0.00 | 0.00 | 0.00 | 52 | 1003.3 |
| 20260505161535 | 76 | 287 | 4.3 | 7.0 | 0.00 | 0.00 | 0.00 | 52 | 1003.3 |
| 20260505160921 | 75 | 2 | 3.5 | 3.5 | 0.00 | 0.00 | 0.00 | 54 | 1003.3 |
| 20260505160344 | 74 | 333 | 3.5 | 3.5 | 0.00 | 0.00 | 0.00 | 53 | 1003.3 |
| 20260505153319 | 74 | 354 | 4.3 | 5.2 | 0.00 | 0.00 | 0.00 | 54 | 1003.3 |
| 20260505152748 | 74 | 316 | 2.6 | 3.5 | 0.00 | 0.00 | 0.00 | 57 | 1003.3 |
| 20260505152114 | 74 | 359 | 4.3 | 6.1 | 0.00 | 0.00 | 0.00 | 53 | 1003.3 |
| 20260505151546 | 73 | 348 | 4.3 | 5.2 | 0.00 | 0.00 | 0.00 | 54 | 1003.7 |
| 20260505150942 | 73 | 24 | 3.5 | 3.5 | 0.00 | 0.00 | 0.00 | 55 | 1003.3 |
| 20260505150331 | 73 | 15 | 3.5 | 5.2 | 0.00 | 0.00 | 0.00 | 55 | 1003.3 |
| 20260505140322 | 71 | 266 | 3.5 | 3.5 | 0.00 | 0.00 | 0.00 | 57 | 1003.3 |